Location: *
(0.1100°N, 5.5000°E)
Time: 12:55:47
(UTC+00:00)

Haruka - Pass Details

Date: 07 December 2022
Orbit: 541 x 21195 km, 31.3° (Epoch: 03 February)

Event Time Altitude Azimuth Distance (km) Brightness Sun altitude
Rises 18:38:07 0° 234° (SW) 9,865 10.3 -15.8°
Reaches altitude 10° 18:48:18 10° 229° (SW) 6,103 8.7 -18.2°
Maximum altitude 19:00:23 46° 158° (SSE) 1,372 4.2 -20.9°
Enters shadow 19:02:11 33° 108° (ESE) 1,392 3.9 -21.3°
